Regional Weather Roundup
Issued by NWS

Home | Current Version | Previous Version | Text Only | Print | Product List | Glossary On
Versions: 1 2 3 4 5 6 7 8 9 10 11 12 13 14 15 16 17 18 19 20 21 22 23 24 25 26 27 28 29 30 31 32 33 34 35 36 37 38 39 40 41 42 43 44 45 46 47 48 49 50
000
ASUS43 KMPX 291601
RWRMN
WEATHER ROUNDUP FOR MINNESOTA
NATIONAL WEATHER SERVICE TWIN CITIES/CHANHASSEN MN
1100 AM CDT MON JUN 29 2015


NOTE: "FAIR" INDICATES FEW OR NO CLOUDS BELOW 12,000 FEET WITH NO
SIGNIFICANT WEATHER AND/OR OBSTRUCTIONS TO VISIBILITY. N/A MEANS
CURRENT SKY AND/OR WEATHER CONDITIONS ARE NOT AVAILABLE.

MNZ060>063-068>070-291700-
   Twin Cities Metro

CITY           SKY/WX    TMP DP  RH WIND       PRES   REMARKS
TWIN CITIES    MOSUNNY   78  64  61 W8        29.83F
ST PAUL        SUNNY     78  64  61 NW9       29.82F
CRYSTAL        SUNNY     79  64  60 NW10      29.82S
BLAINE         SUNNY     77  66  69 W8        29.83S
LAKEVILLE      SUNNY     73  64  73 NW7       29.84S
EDEN PRAIRIE   SUNNY     78  65  63 NW8       29.83S
SOUTH ST PAUL  SUNNY     77  65  64 W6        29.82F
LAKE ELMO      FAIR      77  64  65 W6        29.83F
$$
MNZ001>005-007-008-013>017-022>024-027-028-291700-
   Northwest Minnesota

CITY           SKY/WX    TMP DP  RH WIND       PRES   REMARKS
BEMIDJI        MOSUNNY   71  62  74 NW13      29.82F
HALLOCK        SUNNY     72  64  78 NW9       29.83S
ROSEAU         SUNNY     75  64  69 N8        29.83S
WARROAD        SUNNY     73  63  68 NE9       29.83S
THIEF RVR FALL SUNNY     70  63  78 NW8       29.83S
CROOKSTON      SUNNY     72  63  73 N10       29.84S
FOSSTON        SUNNY     72  63  73 CALM      29.85S
DETROIT LAKES  SUNNY     72  61  68 W10       29.86F
MOORHEAD       SUNNY     73  63  68 W6        29.85S
PARK RAPIDS    SUNNY     76  62  62 W10       29.83S
MAHNOMEN       FAIR      71  62  75 NW7       29.85R
$$
MNZ006-009>011-018-025>026-291700-
   North Central Minnesota

CITY           SKY/WX    TMP DP  RH WIND       PRES   REMARKS
BAUDETTE       SUNNY     73  61  65 N10       29.81R
FLAG ISLAND    MOSUNNY   70  57  64 N9        29.82S
INTL FALLS     SUNNY     73  60  63 N9        29.79S
WASKISH        SUNNY     73  64  73 SW5       29.81R
BIG FORK       SUNNY    N/A N/A N/A N5        29.80S
LONGVILLE      MOSUNNY   75  63  64 W6        29.81S
GRAND RAPIDS   SUNNY     73  63  68 NW9       29.81R
CRANE LAKE     CLOUDY    63  61  94 CALM      29.80R
ORR            PTSUNNY   64  61  88 CALM      29.77S
COOK           TSTM      61  61 100 SW5       29.81R VSB 1
WALKER         PTSUNNY   72  62  72 NW6       29.81S
$$
MNZ012-019>021-037-291700-
   Northeast Minnesota

CITY           SKY/WX    TMP DP  RH WIND       PRES   REMARKS
DULUTH         MOSUNNY   76  62  62 NW6       29.78F
ELY            CLOUDY    61  59  94 SW6       29.78F
HIBBING        MOSUNNY   67  59  75 CALM      29.80S
EVELETH        PTSUNNY   57  55  94 SW3       29.82F THUNDER FOG
DULUTH HARBOR  SUNNY     75  66  73 SW8       29.76S
SILVER BAY     MOSUNNY   73  61  64 W9        29.75R
GRAND MARAIS     N/A     59  58  96 CALM      29.75R
G MARAIS ARPRT LGT RAIN  59  55  88 CALM      29.79F
$$
MNZ029>031-032-039>041-046>048-054>057-064-291700-
   West Central Minnesota

CITY           SKY/WX    TMP DP  RH WIND       PRES   REMARKS
FERGUS FALLS   SUNNY     70  66  88 W6        29.87S
WHEATON        SUNNY     70  63  78 W8        29.90S
MORRIS         SUNNY     73  64  73 NW9       29.88S
ALEXANDRIA     SUNNY     73  64  73 NW10      29.89R
ELBOW LAKE     FAIR      69  64  83 W7        29.88S
WADENA         SUNNY     73  64  73 W8        29.84S
GLENWOOD       SUNNY     73  64  73 W10       29.88S
APPLETON       SUNNY     75  63  64 NW10      29.88S
BENSON         SUNNY     73  63  68 N7        29.88S
ORTONVILLE     SUNNY     75  63  64 W9        29.90R
MADISON        SUNNY     75  63  64 NW8       29.89S
WILLMAR        FAIR      75  66  73 W10       29.89S
$$
MNZ033>034-036-042>043-049>051-058-059-291700-
   Central Minnesota

CITY           SKY/WX    TMP DP  RH WIND       PRES   REMARKS
ST CLOUD       SUNNY     78  63  59 W7        29.83F
SAUK CENTRE    FAIR      76  64  65 W8        29.86S
PAYNESVILLE    SUNNY     75  64  68 SW7       29.87S
AITKIN         SUNNY     77  64  65 W5        29.80S
PINE RIVER       N/A     75  63  64 NW5       29.85S
BRAINERD       MOSUNNY   77  61  57 NW7       29.82F
STAPLES        SUNNY     77  63  61 W10       29.83F
LONG PRAIRIE   FAIR      75  63  64 W8        29.87R
LITTLE FALLS   SUNNY     77  61  57 W6        29.84S
LITCHFIELD     SUNNY     79  66  65 W7        29.86F
BUFFALO        SUNNY     77  64  63 NW6       29.85S
MAPLE LAKE     SUNNY     78  67  68 NW7       29.85F
$$
MNZ037-044-045-052-053-291700-
   East Central Minnesota

CITY           SKY/WX    TMP DP  RH WIND       PRES   REMARKS
PRINCETON      SUNNY     81  64  57 W7        29.83S
MORA           SUNNY     75  63  64 NW8       29.83S
CAMBRIDGE      SUNNY     79  64  61 W7        29.81S
RUSH CITY      SUNNY     77  66  68 NW3       29.82S
MOOSE LAKE     SUNNY     75  70  83 NW3       29.79S
HINCKLEY       FAIR      77  66  69 W6        29.81S
CLOQUET        MOSUNNY   75  63  64 W8        29.79S THUNDER
MCGREGOR       SUNNY     75  63  64 W6        29.81S
$$
MNZ071>073-080-081-089-090-097-098-291700-
   Southwest Minnesota

CITY           SKY/WX    TMP DP  RH WIND       PRES   REMARKS
MONTEVIDEO     SUNNY     73  66  78 NW8       29.90S
GRANITE FALLS  SUNNY     72  64  75 W8        29.91S
CANBY          SUNNY     76  64  66 NW7       29.92S
MARSHALL       SUNNY     75  61  60 NW13      29.90S
REDWOOD FALLS  SUNNY     75  64  68 W9        29.88S
OLIVIA         SUNNY     72  63  73 W9        29.87S
PIPESTONE      SUNNY     75  61  60 NW7       29.95S
WINDOM         SUNNY     75  64  69 W9        29.91S
WORTHINGTON    SUNNY     75  61  60 NW13      29.93S
JACKSON        SUNNY     75  64  69 NW7       29.92S
TRACY          MOSUNNY   75  64  67 NW10      29.91S
SLAYTON        SUNNY     76  60  58 NW10      29.94S
$$
MNZ065>067-074>077-082>085-091>093-291700-
   South Central Minnesota

CITY           SKY/WX    TMP DP  RH WIND       PRES   REMARKS
MANKATO        SUNNY     75  64  69 NW10      29.87S
NEW ULM        SUNNY     75  64  69 NW9       29.87F
ST JAMES       SUNNY     77  66  69 NW8       29.89F
FAIRMONT       SUNNY     75  63  64 NW9       29.89S
GLENCOE        SUNNY     78  66  66 W8        29.85S
FARIBAULT      SUNNY     75  66  73 W9        29.86S
OWATONNA       SUNNY     75  64  69 W9        29.86S
WASECA         SUNNY     73  64  73 NW9       29.88S
ALBERT LEA       N/A     73  66  78 W9G18     29.87S
$$
MNZ078>079-086>088-094>096-291700-
   Southeast Minnesota

CITY           SKY/WX    TMP DP  RH WIND       PRES   REMARKS
ROCHESTER      SUNNY     76  66  71 NW9       29.86S
RED WING       SUNNY     77  64  65 NW3       29.81F
STANTON        SUNNY     75  66  73 NW7       29.83S
DODGE CENTER   SUNNY     75  66  73 NW6       29.86S
WINONA         MOSUNNY   72  64  78 N3        29.83S
AUSTIN         SUNNY     73  66  78 NW7       29.86S
PRESTON        MOSUNNY   73  63  72 NW8       29.86S
$$
ABBREVIATIONS USED IN REMARKS
   TC - TEMPERATURES IN CELSIUS
  WCI - WIND CHILL INDEX
   HX - HEAT INDEX
  VSB - VISIBILITY
$$



USA.gov is the U.S. government's official web portal to all federal, state and local government web resources and services.